Time,TemperatureF,DewpointF,PressureIn,WindDirection,WindDirectionDegrees,WindSpeedMPH,WindSpeedGustMPH,Humidity,HourlyPrecipIn,Conditions,Clouds,dailyrainin,SoftwareType,DateUTC
2013-04-11 00:03:00,41.0,40.0,29.80,East,93,4.0,10.0,96,0.00,,,0.09,,2013-04-11 04:03:00,
2013-04-11 00:12:00,41.0,40.0,29.79,ESE,121,3.0,14.0,97,0.00,,,0.09,,2013-04-11 04:12:00,
2013-04-11 00:22:00,41.0,40.0,29.79,ESE,121,3.0,14.0,97,0.00,,,0.09,,2013-04-11 04:22:00,
2013-04-11 00:33:00,42.0,41.0,29.80,ESE,121,1.0,9.0,97,0.01,,,0.10,,2013-04-11 04:33:00,
2013-04-11 00:42:00,42.0,41.0,29.80,ESE,121,1.0,9.0,97,0.01,,,0.10,,2013-04-11 04:42:00,
2013-04-11 00:53:00,42.0,41.0,29.82,ESE,102,3.0,9.0,97,0.03,,,0.12,,2013-04-11 04:53:00,
2013-04-11 01:02:00,42.0,41.0,29.80,ESE,107,4.0,11.0,97,0.08,,,0.17,,2013-04-11 05:02:00,
2013-04-11 01:13:00,42.0,41.0,29.85,NE,55,8.0,11.0,97,0.12,,,0.21,,2013-04-11 05:13:00,
2013-04-11 01:22:00,42.0,41.0,29.85,NE,55,8.0,11.0,97,0.12,,,0.21,,2013-04-11 05:22:00,
2013-04-11 01:32:00,42.0,41.0,29.80,ESE,106,1.0,15.0,97,0.17,,,0.27,,2013-04-11 05:32:00,
2013-04-11 01:42:00,42.0,41.0,29.80,ESE,106,1.0,15.0,97,0.17,,,0.27,,2013-04-11 05:42:00,
2013-04-11 01:52:00,42.0,41.0,29.80,ENE,66,3.0,9.0,97,0.20,,,0.32,,2013-04-11 05:52:00,
2013-04-11 02:02:00,42.0,41.0,29.79,NE,47,3.0,7.0,98,0.22,,,0.39,,2013-04-11 06:02:00,
2013-04-11 02:12:00,42.0,41.0,29.79,NE,47,3.0,7.0,98,0.22,,,0.39,,2013-04-11 06:12:00,
2013-04-11 02:22:00,41.0,40.0,29.80,NE,40,5.0,8.0,98,0.29,,,0.49,,2013-04-11 06:22:00,
2013-04-11 02:32:00,41.0,40.0,29.80,ENE,59,5.0,10.0,98,0.34,,,0.60,,2013-04-11 06:32:00,
2013-04-11 02:42:00,41.0,40.0,29.80,ENE,59,5.0,10.0,98,0.34,,,0.60,,2013-04-11 06:42:00,
2013-04-11 02:52:00,41.0,40.0,29.83,ESE,109,1.0,8.0,98,0.40,,,0.71,,2013-04-11 06:52:00,
2013-04-11 03:02:00,41.0,40.0,29.80,NNE,30,3.0,8.0,98,0.42,,,0.80,,2013-04-11 07:02:00,
2013-04-11 03:12:00,41.0,40.0,29.80,NNE,30,3.0,8.0,98,0.42,,,0.80,,2013-04-11 07:12:00,
2013-04-11 03:22:00,41.0,40.0,29.79,NE,40,0.0,7.0,98,0.35,,,0.83,,2013-04-11 07:22:00,
2013-04-11 03:32:00,41.0,40.0,29.79,East,80,3.0,11.0,98,0.25,,,0.85,,2013-04-11 07:32:00,
2013-04-11 03:42:00,41.0,40.0,29.79,East,80,3.0,11.0,98,0.25,,,0.85,,2013-04-11 07:42:00,
2013-04-11 03:52:00,41.0,40.0,29.78,NNE,32,2.0,6.0,98,0.15,,,0.86,,2013-04-11 07:52:00,
2013-04-11 04:02:00,41.0,40.0,29.77,ENE,62,1.0,8.0,98,0.07,,,0.87,,2013-04-11 08:02:00,
2013-04-11 04:12:00,41.0,40.0,29.77,ENE,62,1.0,8.0,98,0.07,,,0.87,,2013-04-11 08:12:00,
2013-04-11 04:22:00,41.0,40.0,29.77,ENE,76,4.0,10.0,98,0.06,,,0.89,,2013-04-11 08:22:00,
2013-04-11 04:32:00,41.0,40.0,29.80,ENE,58,0.0,6.0,98,0.05,,,0.90,,2013-04-11 08:32:00,
2013-04-11 04:42:00,41.0,40.0,29.80,ENE,58,0.0,6.0,98,0.05,,,0.90,,2013-04-11 08:42:00,
2013-04-11 04:52:00,41.0,40.0,29.78,ESE,113,1.0,6.0,98,0.06,,,0.92,,2013-04-11 08:52:00,
2013-04-11 05:02:00,41.0,40.0,29.70,NNE,24,4.0,11.0,98,0.06,,,0.93,,2013-04-11 09:02:00,
2013-04-11 05:12:00,41.0,40.0,29.75,ESE,121,2.0,9.0,98,0.04,,,0.93,,2013-04-11 09:12:00,
2013-04-11 05:22:00,41.0,40.0,29.75,ESE,121,2.0,9.0,98,0.04,,,0.93,,2013-04-11 09:22:00,
2013-04-11 05:33:00,41.0,40.0,29.71,ESE,106,7.0,11.0,98,0.03,,,0.93,,2013-04-11 09:33:00,
2013-04-11 05:43:00,41.0,40.0,29.71,ESE,106,7.0,11.0,98,0.03,,,0.93,,2013-04-11 09:43:00,
2013-04-11 05:53:00,41.0,40.0,29.72,ENE,64,5.0,8.0,98,0.01,,,0.93,,2013-04-11 09:53:00,
2013-04-11 06:02:00,41.0,40.0,29.72,ESE,117,3.0,11.0,98,0.00,,,0.93,,2013-04-11 10:02:00,
2013-04-11 06:12:00,41.0,40.0,29.72,ESE,104,1.0,11.0,98,0.00,,,0.93,,2013-04-11 10:12:00,
2013-04-11 06:23:00,41.0,40.0,29.72,ESE,104,1.0,11.0,98,0.00,,,0.93,,2013-04-11 10:23:00,
2013-04-11 06:32:00,41.0,40.0,29.73,ENE,68,5.0,13.0,97,0.00,,,0.93,,2013-04-11 10:32:00,
2013-04-11 06:42:00,41.0,40.0,29.73,ENE,68,5.0,13.0,97,0.00,,,0.93,,2013-04-11 10:42:00,
2013-04-11 06:52:00,41.0,40.0,29.72,ENE,69,5.0,13.0,97,0.00,,,0.93,,2013-04-11 10:52:00,
2013-04-11 07:02:00,41.0,40.0,29.72,ENE,69,5.0,13.0,97,0.00,,,0.93,,2013-04-11 11:02:00,
2013-04-11 07:12:00,41.0,40.0,29.72,NE,40,2.0,8.0,97,0.00,,,0.93,,2013-04-11 11:12:00,
2013-04-11 07:22:00,41.0,40.0,29.71,ESE,106,3.0,8.0,97,0.00,,,0.93,,2013-04-11 11:22:00,
2013-04-11 07:32:00,42.0,41.0,29.71,ESE,121,7.0,10.0,96,0.00,,,0.93,,2013-04-11 11:32:00,
2013-04-11 07:42:00,42.0,41.0,29.71,SE,141,5.0,11.0,96,0.00,,,0.93,,2013-04-11 11:42:00,
2013-04-11 07:52:00,42.0,41.0,29.71,SE,141,5.0,11.0,96,0.00,,,0.93,,2013-04-11 11:52:00,
2013-04-11 08:02:00,42.0,41.0,29.72,ESE,123,4.0,10.0,95,0.00,,,0.93,,2013-04-11 12:02:00,
2013-04-11 08:12:00,42.0,41.0,29.72,ESE,121,6.0,9.0,95,0.00,,,0.93,,2013-04-11 12:12:00,
2013-04-11 08:22:00,42.0,41.0,29.72,ESE,121,6.0,9.0,95,0.00,,,0.93,,2013-04-11 12:22:00,
2013-04-11 08:32:00,42.0,40.0,29.70,SE,136,1.0,14.0,94,0.00,,,0.93,,2013-04-11 12:32:00,
2013-04-11 08:42:00,42.0,40.0,29.70,SE,136,1.0,14.0,94,0.00,,,0.93,,2013-04-11 12:42:00,
2013-04-11 08:52:00,42.0,40.0,29.72,SE,126,3.0,10.0,94,0.00,,,0.93,,2013-04-11 12:52:00,
2013-04-11 09:02:00,42.0,40.0,29.69,ESE,116,5.0,15.0,94,0.00,,,0.93,,2013-04-11 13:02:00,
2013-04-11 09:12:00,42.0,40.0,29.69,ENE,72,4.0,13.0,94,0.00,,,0.93,,2013-04-11 13:12:00,
2013-04-11 09:23:00,42.0,40.0,29.69,ENE,72,4.0,13.0,94,0.00,,,0.93,,2013-04-11 13:23:00,
2013-04-11 09:32:00,42.0,40.0,29.70,East,99,5.0,13.0,94,0.00,,,0.93,,2013-04-11 13:32:00,
2013-04-11 09:43:00,42.0,40.0,29.70,East,99,5.0,13.0,94,0.00,,,0.93,,2013-04-11 13:43:00,
2013-04-11 09:54:00,42.0,40.0,29.70,NNE,23,1.0,11.0,94,0.00,,,0.93,,2013-04-11 13:54:00,
2013-04-11 10:02:00,43.0,41.0,29.70,ESE,119,3.0,9.0,94,0.00,,,0.93,,2013-04-11 14:02:00,
2013-04-11 10:12:00,43.0,41.0,29.69,SE,144,7.0,11.0,94,0.00,,,0.93,,2013-04-11 14:12:00,
2013-04-11 10:22:00,43.0,41.0,29.69,SE,144,7.0,11.0,94,0.00,,,0.93,,2013-04-11 14:22:00,
2013-04-11 10:32:00,43.0,42.0,29.68,SE,130,6.0,13.0,95,0.00,,,0.93,,2013-04-11 14:32:00,
2013-04-11 10:42:00,43.0,42.0,29.68,SE,130,6.0,13.0,95,0.00,,,0.93,,2013-04-11 14:42:00,
2013-04-11 10:52:00,43.0,42.0,29.68,ESE,107,3.0,10.0,95,0.00,,,0.93,,2013-04-11 14:52:00,
2013-04-11 11:02:00,43.0,42.0,29.68,SE,136,5.0,10.0,95,0.02,,,0.95,,2013-04-11 15:02:00,
2013-04-11 11:12:00,43.0,42.0,29.68,East,99,8.0,16.0,96,0.03,,,0.95,,2013-04-11 15:12:00,
2013-04-11 11:22:00,43.0,42.0,29.68,East,99,8.0,16.0,96,0.03,,,0.95,,2013-04-11 15:22:00,
2013-04-11 11:32:00,43.0,42.0,29.67,ESE,123,6.0,13.0,96,0.03,,,0.95,,2013-04-11 15:32:00,
2013-04-11 11:43:00,43.0,42.0,29.67,East,100,4.0,15.0,96,0.03,,,0.95,,2013-04-11 15:43:00,
2013-04-11 11:53:00,43.0,42.0,29.67,East,100,4.0,15.0,96,0.03,,,0.95,,2013-04-11 15:53:00,
2013-04-11 12:02:00,43.0,42.0,29.67,East,95,6.0,14.0,96,0.02,,,0.95,,2013-04-11 16:02:00,
2013-04-11 12:12:00,43.0,42.0,29.67,East,95,6.0,14.0,96,0.02,,,0.95,,2013-04-11 16:12:00,
2013-04-11 12:22:00,43.0,42.0,29.66,ESE,102,6.0,13.0,96,0.00,,,0.94,,2013-04-11 16:22:00,
2013-04-11 12:32:00,43.0,42.0,29.66,East,93,6.0,13.0,96,0.00,,,0.94,,2013-04-11 16:32:00,
2013-04-11 12:53:00,43.0,42.0,29.67,SE,144,4.0,13.0,96,0.00,,,0.94,,2013-04-11 16:53:00,
2013-04-11 13:02:00,43.0,42.0,29.66,East,89,6.0,13.0,96,0.00,,,0.94,,2013-04-11 17:02:00,
2013-04-11 13:12:00,43.0,42.0,29.66,East,89,6.0,13.0,96,0.00,,,0.94,,2013-04-11 17:12:00,
2013-04-11 13:23:00,43.0,42.0,29.66,SSE,152,5.0,14.0,96,0.00,,,0.94,,2013-04-11 17:23:00,
2013-04-11 13:32:00,43.0,42.0,29.66,SSE,152,5.0,14.0,96,0.00,,,0.94,,2013-04-11 17:32:00,
2013-04-11 13:42:00,43.0,42.0,29.66,SSE,152,5.0,14.0,96,0.00,,,0.94,,2013-04-11 17:42:00,
2013-04-11 13:52:00,43.0,42.0,29.66,SSE,152,5.0,14.0,96,0.00,,,0.94,,2013-04-11 17:52:00,
2013-04-11 20:02:00,42.0,41.0,29.59,ESE,123,2.0,6.0,98,0.14,,,1.25,,2013-04-12 00:02:00,
2013-04-11 20:12:00,42.0,41.0,29.59,ESE,123,2.0,6.0,98,0.14,,,1.25,,2013-04-12 00:12:00,
2013-04-11 20:22:00,41.0,40.0,29.58,ESE,112,2.0,8.0,98,0.15,,,1.25,,2013-04-12 00:22:00,
2013-04-11 20:32:00,41.0,40.0,29.59,SE,127,0.0,7.0,98,0.13,,,1.27,,2013-04-12 00:32:00,
2013-04-11 20:42:00,41.0,40.0,29.59,SE,127,0.0,7.0,98,0.13,,,1.27,,2013-04-12 00:42:00,
2013-04-11 20:53:00,41.0,40.0,29.58,East,93,2.0,6.0,98,0.09,,,1.28,,2013-04-12 00:53:00,
2013-04-11 21:02:00,41.0,40.0,29.56,East,90,0.0,7.0,98,0.07,,,1.30,,2013-04-12 01:02:00,
2013-04-11 21:12:00,41.0,40.0,29.56,East,90,0.0,7.0,98,0.07,,,1.30,,2013-04-12 01:12:00,
2013-04-11 21:22:00,41.0,40.0,29.57,ESE,103,0.0,6.0,98,0.05,,,1.30,,2013-04-12 01:22:00,
2013-04-11 21:32:00,41.0,40.0,29.57,East,95,0.0,7.0,98,0.03,,,1.30,,2013-04-12 01:32:00,
2013-04-11 21:42:00,41.0,40.0,29.57,East,95,0.0,7.0,98,0.03,,,1.30,,2013-04-12 01:42:00,
2013-04-11 21:52:00,41.0,40.0,29.57,ESE,103,1.0,6.0,98,0.02,,,1.30,,2013-04-12 01:52:00,
2013-04-11 22:03:00,41.0,40.0,29.56,East,89,1.0,4.0,98,0.01,,,1.31,,2013-04-12 02:03:00,
2013-04-11 22:12:00,41.0,40.0,29.56,East,89,1.0,4.0,98,0.01,,,1.31,,2013-04-12 02:12:00,
2013-04-11 22:22:00,40.0,39.0,29.56,East,92,1.0,6.0,98,0.02,,,1.32,,2013-04-12 02:22:00,
2013-04-11 22:32:00,40.0,39.0,29.56,East,93,2.0,7.0,98,0.02,,,1.32,,2013-04-12 02:32:00,
2013-04-11 22:42:00,40.0,39.0,29.56,East,93,2.0,7.0,98,0.02,,,1.32,,2013-04-12 02:42:00,
2013-04-11 22:52:00,40.0,39.0,29.56,East,85,0.0,4.0,98,0.02,,,1.32,,2013-04-12 02:52:00,
2013-04-11 23:02:00,40.0,39.0,29.55,SSE,160,2.0,4.0,98,0.02,,,1.33,,2013-04-12 03:02:00,
2013-04-11 23:12:00,40.0,39.0,29.55,SSE,160,2.0,4.0,98,0.02,,,1.33,,2013-04-12 03:12:00,
2013-04-11 23:22:00,40.0,39.0,29.56,SSE,150,1.0,6.0,98,0.01,,,1.33,,2013-04-12 03:22:00,
2013-04-11 23:33:00,40.0,39.0,29.55,East,83,0.0,4.0,98,0.01,,,1.33,,2013-04-12 03:33:00,
2013-04-11 23:43:00,40.0,39.0,29.55,East,83,0.0,4.0,98,0.01,,,1.33,,2013-04-12 03:43:00,
2013-04-11 23:53:00,40.0,39.0,29.55,ESE,102,0.0,4.0,98,0.02,,,1.34,,2013-04-12 03:53:00,